Date String (YYYY-MM-DD hh:mm:ss) UTC,Instrument flags,Ambient pressure (hPa),Sample flow (lpm),Bypass flow (lpm),Sample temperature (°C),Ambient temperature (°C),ASC tube jacket temperature (°C),LED temperature (°C),Box temperature (°C),Sample RH (%),Span deviation,Mass concentration (μg/m³),Mass concentration (μg/m³),Mass concentration (μg/m³)
DateTimeUTC,F1_M11,P_M11,Q1_M11,Q2_M11,T1_M11,T2_M11,T3_M11,T4_M11,T5_M11,U1_M11,ZSPAN_M11,X0_M11,X2_M11,X1_M11
2022-08-19 09:00:00,,0828.2,5.00,0.00,30.0,29.0,00.0,38.7,31.9,21.0,0000.0,0012.25,0006.27,0005.53
2022-08-19 09:01:00,,0828.2,4.99,0.00,30.0,29.0,00.0,38.7,31.9,21.0,0000.0,0012.34,0006.30,0005.54
2022-08-19 09:02:00,,0828.2,5.01,0.00,30.0,28.6,00.0,38.7,31.8,21.1,0000.0,0012.67,0006.29,0005.55
2022-08-19 09:03:00,,0828.2,5.00,0.00,29.9,27.8,00.0,38.6,31.6,21.2,0000.0,0012.80,0006.28,0005.54
2022-08-19 09:04:00,,0828.2,5.00,0.00,29.9,27.5,00.0,38.6,31.5,21.3,0000.0,0013.15,0006.31,0005.56
2022-08-19 09:05:00,,0828.1,5.01,0.00,29.8,27.4,00.0,38.6,31.4,21.4,0000.0,0013.06,0006.32,0005.56
2022-08-19 09:06:00,,0828.2,5.00,0.00,29.7,27.5,00.0,38.6,31.4,21.4,0000.0,0013.04,0006.33,0005.56
2022-08-19 09:07:00,,0828.2,4.99,0.00,29.7,27.6,00.0,38.5,31.4,21.5,0000.0,0013.66,0006.34,0005.57
2022-08-19 09:08:00,,0828.1,5.01,0.00,29.6,27.7,00.0,38.5,31.4,21.6,0000.0,0013.98,0006.34,0005.57
2022-08-19 09:09:00,,0828.1,4.99,0.00,29.6,27.8,00.0,38.5,31.4,21.5,0000.0,0015.09,0006.36,0005.55
2022-08-19 09:10:00,,0828.1,5.01,0.00,29.6,28.0,00.0,38.5,31.4,21.5,0000.0,0016.14,0006.35,0005.54
2022-08-19 09:11:00,,0828.1,5.01,0.00,29.6,28.1,00.0,38.5,31.4,21.5,0000.0,0017.10,0006.42,0005.54
2022-08-19 09:12:00,,0828.1,5.00,0.00,29.6,28.2,00.0,38.5,31.5,21.5,0000.0,0017.11,0006.43,0005.53
2022-08-19 09:13:00,,0828.1,4.99,0.00,29.7,28.2,00.0,38.5,31.5,21.4,0000.0,0016.81,0006.44,0005.52
2022-08-19 09:14:00,,0828.1,5.00,0.00,29.7,28.3,00.0,38.5,31.5,21.4,0000.0,0016.73,0006.45,0005.51
2022-08-19 09:15:00,,0828.1,5.00,0.00,29.7,28.4,00.0,38.5,31.5,21.4,0000.0,0016.26,0006.39,0005.49
2022-08-19 09:16:00,,0828.1,5.00,0.00,29.7,28.4,00.0,38.5,31.5,21.3,0000.0,0016.11,0006.40,0005.48
2022-08-19 09:17:00,,0828.1,5.00,0.00,29.7,28.5,00.0,38.5,31.5,21.4,0000.0,0016.03,0006.37,0005.47
2022-08-19 09:18:00,,0828.1,5.00,0.00,29.7,28.5,00.0,38.5,31.6,21.5,0000.0,0015.28,0006.33,0005.45
2022-08-19 09:19:00,,0828.1,5.00,0.00,29.7,28.6,00.0,38.5,31.6,21.4,0000.0,0014.41,0006.27,0005.44
2022-08-19 09:20:00,,0828.1,5.00,0.00,29.7,28.6,00.0,38.5,31.6,21.4,0000.0,0013.36,0006.23,0005.43
2022-08-19 09:21:00,,0828.1,4.99,0.00,29.8,28.6,00.0,38.5,31.6,21.3,0000.0,0013.25,0006.22,0005.43
2022-08-19 09:22:00,,0828.1,5.00,0.00,29.8,28.7,00.0,38.5,31.7,21.3,0000.0,0012.20,0006.14,0005.42
2022-08-19 09:23:00,,0828.0,5.01,0.00,29.8,28.7,00.0,38.5,31.7,21.3,0000.0,0012.04,0006.09,0005.40
2022-08-19 09:24:00,,0828.0,4.99,0.00,29.8,28.7,00.0,38.5,31.7,21.3,0000.0,0012.07,0006.07,0005.40
2022-08-19 09:25:00,,0828.0,5.00,0.00,29.8,28.8,00.0,38.5,31.7,21.3,0000.0,0012.12,0006.05,0005.39
2022-08-19 09:26:00,,0828.0,4.99,0.00,29.8,28.8,00.0,38.6,31.7,21.2,0000.0,0012.07,0006.06,0005.40
2022-08-19 09:27:00,,0828.0,5.00,0.00,29.9,28.8,00.0,38.6,31.7,21.1,0000.0,0011.97,0006.07,0005.42
2022-08-19 09:28:00,,0828.0,5.00,0.00,29.9,28.8,00.0,38.6,31.8,21.2,0000.0,0012.22,0006.10,0005.42
2022-08-19 09:29:00,,0828.0,5.00,0.00,29.9,28.9,00.0,38.6,31.8,21.1,0000.0,0012.63,0006.13,0005.42
2022-08-19 09:30:00,,0828.0,5.00,0.00,29.9,28.9,00.0,38.6,31.8,21.1,0000.0,0012.97,0006.16,0005.43
2022-08-19 09:31:00,,0828.0,5.00,0.00,29.9,28.9,00.0,38.6,31.9,21.0,0000.0,0013.34,0006.20,0005.44
2022-08-19 09:32:00,,0828.0,5.00,0.00,29.9,28.9,00.0,38.6,31.9,21.1,0000.0,0012.62,0006.22,0005.45
2022-08-19 09:33:00,,0827.9,5.00,0.00,30.0,28.9,00.0,38.7,31.9,21.0,0000.0,0012.93,0006.26,0005.46
2022-08-19 09:34:00,,0828.0,5.00,0.00,30.0,29.0,00.0,38.7,31.9,20.9,0000.0,0013.37,0006.31,0005.46
2022-08-19 09:35:00,,0827.9,5.00,0.00,30.0,29.0,00.0,38.7,31.9,20.9,0000.0,0013.31,0006.32,0005.45
2022-08-19 09:36:00,,0827.9,5.00,0.00,30.0,29.0,00.0,38.7,31.9,20.9,0000.0,0013.12,0006.35,0005.46
2022-08-19 09:37:00,,0827.9,5.00,0.00,30.0,29.0,00.0,38.7,31.9,20.8,0000.0,0013.44,0006.34,0005.46
2022-08-19 09:38:00,,0828.0,5.01,0.00,30.0,29.0,00.0,38.7,31.9,20.8,0000.0,0014.03,0006.31,0005.44
2022-08-19 09:39:00,,0827.9,5.00,0.00,30.0,29.0,00.0,38.8,31.9,20.8,0000.0,0013.50,0006.24,0005.43
2022-08-19 09:40:00,,0827.9,5.00,0.00,30.1,29.0,00.0,38.8,32.0,20.8,0000.0,0013.26,0006.22,0005.44
2022-08-19 09:41:00,,0827.8,5.00,0.00,30.1,29.0,00.0,38.8,32.0,20.8,0000.0,0013.29,0006.23,0005.44
2022-08-19 09:42:00,,0827.8,5.00,0.00,30.1,29.0,00.0,38.8,32.0,20.8,0000.0,0012.98,0006.24,0005.43
2022-08-19 09:43:00,,0827.9,4.99,0.00,30.1,29.1,00.0,38.8,32.0,20.8,0000.0,0014.22,0006.24,0005.43
2022-08-19 09:44:00,,0827.8,5.00,0.00,30.1,28.8,00.0,38.8,31.9,20.8,0000.0,0013.89,0006.20,0005.43
2022-08-19 09:45:00,,0827.9,5.01,0.00,30.0,28.0,00.0,38.7,31.7,20.8,0000.0,0013.65,0006.17,0005.44
2022-08-19 09:46:00,,0827.9,5.00,0.00,30.0,27.6,00.0,38.7,31.6,20.9,0000.0,0013.66,0006.18,0005.46
2022-08-19 09:47:00,,0827.9,4.99,0.00,29.9,27.5,00.0,38.7,31.5,21.0,0000.0,0013.80,0006.17,0005.45
2022-08-19 09:48:00,,0827.8,5.00,0.00,29.8,27.5,00.0,38.7,31.4,21.0,0000.0,0013.49,0006.16,0005.45
2022-08-19 09:49:00,,0827.8,5.01,0.00,29.7,27.6,00.0,38.6,31.4,21.1,0000.0,0012.54,0006.14,0005.44
2022-08-19 09:50:00,,0827.8,4.99,0.00,29.7,27.8,00.0,38.6,31.4,21.1,0000.0,0013.11,0006.13,0005.44
2022-08-19 09:51:00,,0827.8,4.99,0.00,29.7,27.9,00.0,38.6,31.4,21.1,0000.0,0013.43,0006.11,0005.43
2022-08-19 09:52:00,,0827.8,5.02,0.00,29.7,28.0,00.0,38.6,31.5,21.1,0000.0,0013.09,0006.09,0005.41
2022-08-19 09:53:00,,0827.8,5.00,0.00,29.7,28.1,00.0,38.6,31.5,21.1,0000.0,0012.81,0006.05,0005.40
2022-08-19 09:54:00,,0827.7,5.00,0.00,29.7,28.2,00.0,38.5,31.5,21.1,0000.0,0011.14,0006.01,0005.38
2022-08-19 09:55:00,,0827.8,5.00,0.00,29.7,28.3,00.0,38.5,31.5,21.1,0000.0,0011.41,0006.01,0005.37
2022-08-19 09:56:00,,0827.7,5.00,0.00,29.7,28.3,00.0,38.5,31.6,21.0,0000.0,0011.50,0006.03,0005.34
2022-08-19 09:57:00,,0827.7,5.00,0.00,29.7,28.4,00.0,38.5,31.6,21.0,0000.0,0011.69,0005.99,0005.32
2022-08-19 09:58:00,,0827.7,5.00,0.00,29.7,28.5,00.0,38.5,31.6,20.9,0000.0,0012.01,0005.95,0005.29
2022-08-19 09:59:00,,0827.7,5.00,0.00,29.7,28.5,00.0,38.5,31.6,20.9,0000.0,0012.60,0005.96,0005.28
